N8DMH-13 Weather Reports


Display with metric or nautical units.
time (UTC)temp
F
wind
direction
speed
MPH
gust
MPH
rain 1hr
in
rain 24hr
in
rain mn
in
humidity
%
barometer
mb
20260509123719 56 270 1.0 5.0 0.00 0.00 0.00 73 997.5
20260509123218 56 0 0.0 4.0 0.00 0.00 0.00 73 997.5
20260509122648 55 248 1.0 5.0 0.00 0.00 0.00 73 997.7
20260509122148 55 0 0.0 2.0 0.00 0.00 0.00 73 997.6
20260509121620 55 22 1.0 5.0 0.00 0.00 0.00 74 997.6
20260509121118 54 0 0.0 1.0 0.00 0.00 0.00 74 997.7
20260509120618 54 158 1.0 8.0 0.00 0.00 0.00 74 997.7
20260509120048 54 0 0.0 2.0 0.00 0.00 0.00 74 997.7
20260509115518 53 225 1.0 5.0 0.00 0.00 0.00 74 997.9
20260509115018 53 0 0.0 2.0 0.00 0.00 0.00 73 998.0
20260509114518 53 135 1.0 4.0 0.00 0.00 0.00 73 997.9
20260509113948 53 202 1.0 4.0 0.00 0.00 0.00 73 997.8
20260509113449 53 0 0.0 2.0 0.00 0.00 0.00 73 998.0
20260509112917 53 0 0.0 1.0 0.00 0.00 0.00 72 998.1
20260509112417 53 0 0.0 3.0 0.00 0.00 0.00 71 998.0
20260509111848 53 0 0.0 3.0 0.00 0.00 0.00 71 998.1
20260509111347 53 0 0.0 3.0 0.00 0.00 0.00 70 998.0
20260509110817 53 0 0.0 2.0 0.00 0.00 0.00 70 997.9
20260509110317 53 0 0.0 1.0 0.00 0.00 0.00 69 998.2
20260509105747 53 0 0.0 1.0 0.00 0.00 0.00 69 998.2
20260509105217 53 0 0.0 1.0 0.00 0.00 0.00 68 998.3
20260509104647 53 22 1.0 3.0 0.00 0.00 0.00 68 998.4
20260509104148 53 0 0.0 1.0 0.00 0.00 0.00 68 998.5
20260509103646 53 0 0.0 3.0 0.00 0.00 0.00 67 998.6
20260509103116 53 0 0.0 1.0 0.00 0.00 0.00 67 998.6
20260509102616 54 0 0.0 3.0 0.00 0.00 0.00 66 998.8
20260509102116 54 0 0.0 1.0 0.00 0.00 0.00 66 998.7
20260509101546 54 135 1.0 5.0 0.00 0.00 0.00 65 998.6
20260509101047 55 135 1.0 3.0 0.00 0.00 0.00 65 998.5
20260509100546 55 135 1.0 5.0 0.00 0.00 0.00 65 998.6
20260509100016 55 0 0.0 2.0 0.00 0.00 0.00 66 998.8
20260509095516 55 0 0.0 5.0 0.00 0.00 0.00 65 998.9
20260509095016 54 225 1.0 3.0 0.00 0.00 0.00 65 999.0
20260509094446 54 0 0.0 3.0 0.00 0.00 0.00 64 998.6
20260509093915 54 135 1.0 3.0 0.00 0.00 0.00 62 998.4
20260509093415 53 0 0.0 5.0 0.00 0.00 0.00 62 998.7
20260509092915 53 225 1.0 5.0 0.00 0.00 0.00 61 998.8
20260509092345 53 0 0.0 2.0 0.00 0.00 0.00 60 999.2
20260509091815 53 0 0.0 1.0 0.00 0.00 0.00 59 999.2
20260509091315 53 0 0.0 1.0 0.00 0.00 0.00 58 999.1
20260509090815 53 0 0.0 1.0 0.00 0.00 0.00 58 999.2
20260509090245 53 0 0.0 2.0 0.00 0.00 0.00 57 999.3
20260509085745 53 0 0.0 4.0 0.00 0.00 0.00 58 999.5
20260509085214 53 0 0.0 1.0 0.00 0.00 0.00 58 999.5
20260509084644 53 0 0.0 1.0 0.00 0.00 0.00 58 999.7
20260509084144 52 0 0.0 2.0 0.00 0.00 0.00 58 999.7
20260509083644 52 0 0.0 2.0 0.00 0.00 0.00 58 999.9
20260509083114 52 0 0.0 1.0 0.00 0.00 0.00 57 1000.1
20260509082544 52 0 0.0 1.0 0.00 0.00 0.00 55 1000.1
20260509082044 52 0 0.0 1.0 0.00 0.00 0.00 54 1000.3
20260509081544 52 90 1.0 3.0 0.00 0.00 0.00 53 1000.1
20260509081044 52 0 0.0 1.0 0.00 0.00 0.00 51 1000.3
20260509080513 52 0 0.0 4.0 0.00 0.00 0.00 48 1000.2
20260509080013 53 0 0.0 1.0 0.00 0.00 0.00 46 1000.3
20260509075443 53 0 0.0 2.0 0.00 0.00 0.00 45 1000.3
20260509074943 53 0 0.0 2.0 0.00 0.00 0.00 44 1000.4
20260509074414 53 0 0.0 1.0 0.00 0.00 0.00 42 1000.5
20260509073913 53 0 0.0 0.0 0.00 0.00 0.00 41 1000.5
20260509073343 53 0 0.0 1.0 0.00 0.00 0.00 40 1000.7
20260509072813 53 0 0.0 1.0 0.00 0.00 0.00 40 1000.9
20260509072313 54 0 0.0 2.0 0.00 0.00 0.00 39 1001.0
20260509071743 54 0 0.0 4.0 0.00 0.00 0.00 39 1001.3
20260509071212 54 0 0.0 1.0 0.00 0.00 0.00 39 1001.3
20260509070712 54 0 0.0 1.0 0.00 0.00 0.00 38 1001.5
20260509070142 55 0 0.0 5.0 0.00 0.00 0.00 37 1001.5
20260509065612 54 0 0.0 2.0 0.00 0.00 0.00 37 1001.6
20260509065112 54 248 1.0 3.0 0.00 0.00 0.00 39 1001.7
20260509064542 54 0 0.0 1.0 0.00 0.00 0.00 40 1001.9
20260509064042 54 0 0.0 2.0 0.00 0.00 0.00 41 1001.8
20260509063542 54 0 0.0 1.0 0.00 0.00 0.00 41 1002.0
20260509063042 54 0 0.0 1.0 0.00 0.00 0.00 41 1002.2
20260509062541 54 0 0.0 1.0 0.00 0.00 0.00 41 1002.4
20260509062011 54 0 0.0 1.0 0.00 0.00 0.00 41 1002.4
20260509061511 54 0 0.0 1.0 0.00 0.00 0.00 41 1002.4
20260509060941 54 0 0.0 1.0 0.00 0.00 0.00 41 1002.5
20260509060441 54 0 0.0 1.0 0.00 0.00 0.00 40 1002.4
20260509055911 54 0 0.0 3.0 0.00 0.00 0.00 39 1002.4
20260509055411 54 0 0.0 3.0 0.00 0.00 0.00 39 1002.3
20260509054911 55 0 0.0 2.0 0.00 0.00 0.00 39 1002.3
20260509054411 55 0 0.0 1.0 0.00 0.00 0.00 38 1002.3
20260509053911 54 0 0.0 3.0 0.00 0.00 0.00 39 1002.5
20260509053341 54 0 0.0 1.0 0.00 0.00 0.00 40 1002.5
20260509052840 54 0 0.0 2.0 0.00 0.00 0.00 40 1002.6
20260509052310 54 0 0.0 0.0 0.00 0.00 0.00 41 1002.7
20260509051810 54 0 0.0 0.0 0.00 0.00 0.00 41 1002.7
20260509051311 54 0 0.0 0.0 0.00 0.00 0.00 41 1002.8
20260509050810 54 0 0.0 1.0 0.00 0.00 0.00 40 1002.8
20260509050310 55 0 0.0 1.0 0.00 0.00 0.00 40 1003.0
20260509045740 55 0 0.0 1.0 0.00 0.00 0.00 40 1003.1
20260509045210 55 0 0.0 1.0 0.00 0.00 0.00 40 1003.3
20260509044709 55 0 0.0 2.0 0.00 0.00 0.00 41 1003.3
20260509044209 56 0 0.0 1.0 0.00 0.00 0.00 41 1003.4
20260509043709 56 0 0.0 1.0 0.00 0.00 0.00 40 1003.4
20260509043139 56 0 0.0 2.0 0.00 0.00 0.00 41 1003.5
20260509042609 56 248 3.0 5.0 0.00 0.00 0.00 40 1003.8
20260509042109 55 270 1.0 5.0 0.00 0.00 0.00 41 1003.9
20260509041609 54 0 0.0 2.0 0.00 0.00 0.00 43 1003.9
20260509041109 54 0 0.0 2.0 0.00 0.00 0.00 42 1003.8
20260509040539 54 0 0.0 1.0 0.00 0.00 0.00 43 1003.9
20260509040038 54 0 0.0 1.0 0.00 0.00 0.00 44 1003.9
20260509035538 54 0 0.0 1.0 0.00 0.00 0.00 43 1004.1
20260509035008 54 0 0.0 1.0 0.00 0.00 0.00 43 1004.0
20260509034508 54 0 0.0 1.0 0.00 0.00 0.00 43 1004.1
20260509034008 54 0 0.0 1.0 0.00 0.00 0.00 43 1004.0
20260509033438 54 0 0.0 1.0 0.00 0.00 0.00 42 1004.0
20260509032938 54 0 0.0 0.0 0.00 0.00 0.00 43 1004.1
20260509032408 54 0 0.0 0.0 0.00 0.00 0.00 43 1004.1
20260509031908 53 0 0.0 1.0 0.00 0.00 0.00 44 1004.1
20260509031338 53 0 0.0 0.0 0.00 0.00 0.00 44 1004.0
20260509030808 53 0 0.0 0.0 0.00 0.00 0.00 44 1004.1
20260509030307 53 0 0.0 0.0 0.00 0.00 0.00 43 1004.2
20260509025738 53 0 0.0 0.0 0.00 0.00 0.00 44 1004.3
20260509025207 53 0 0.0 0.0 0.00 0.00 0.00 44 1004.3
20260509024707 53 0 0.0 0.0 0.00 0.00 0.00 44 1004.3
20260509024137 53 0 0.0 0.0 0.00 0.00 0.00 45 1004.3
20260509023637 53 0 0.0 1.0 0.00 0.00 0.00 45 1004.3
20260509023137 53 0 0.0 0.0 0.00 0.00 0.00 45 1004.3
20260509022607 53 0 0.0 0.0 0.00 0.00 0.00 44 1004.3
20260509022107 53 0 0.0 0.0 0.00 0.00 0.00 44 1004.5
20260509021607 54 0 0.0 0.0 0.00 0.00 0.00 44 1004.4
20260509021037 54 0 0.0 0.0 0.00 0.00 0.00 43 1004.4
20260509020536 55 0 0.0 0.0 0.00 0.00 0.00 41 1004.5
20260509020006 56 0 0.0 1.0 0.00 0.00 0.00 40 1004.5
20260509015506 56 0 0.0 0.0 0.00 0.00 0.00 39 1004.4
20260509014936 57 0 0.0 0.0 0.00 0.00 0.00 40 1004.5
20260509014436 57 0 0.0 1.0 0.00 0.00 0.00 40 1004.5
20260509013906 57 0 0.0 0.0 0.00 0.00 0.00 39 1004.5
20260509013406 57 0 0.0 1.0 0.00 0.00 0.00 38 1004.6
20260509012906 58 0 0.0 1.0 0.00 0.00 0.00 38 1004.5
20260509012336 58 0 0.0 0.0 0.00 0.00 0.00 37 1004.5
20260509011806 58 0 0.0 2.0 0.00 0.00 0.00 37 1004.5
20260509011306 58 0 0.0 2.0 0.00 0.00 0.00 37 1004.4
20260509010735 58 0 0.0 2.0 0.00 0.00 0.00 37 1004.4
20260509010205 58 0 0.0 2.0 0.00 0.00 0.00 37 1004.3
20260509005706 59 0 0.0 1.0 0.00 0.00 0.00 36 1004.5
20260509005135 59 0 0.0 2.0 0.00 0.00 0.00 36 1004.3
20260509004635 59 0 0.0 3.0 0.00 0.00 0.00 36 1004.3
20260509004105 59 0 0.0 4.0 0.00 0.00 0.00 36 1004.3
20260509003605 60 0 0.0 2.0 0.00 0.00 0.00 35 1004.3
20260509003105 60 0 0.0 0.0 0.00 0.00 0.00 35 1004.4
20260509002605 60 248 1.0 6.0 0.00 0.00 0.00 35 1004.3
20260509002035 60 270 2.0 7.0 0.00 0.00 0.00 34 1004.4
20260509001534 60 270 2.0 4.0 0.00 0.00 0.00 34 1004.5
20260509001034 60 270 1.0 4.0 0.00 0.00 0.00 34 1004.4
20260509000504 60 248 2.0 4.0 0.00 0.00 0.00 34 1004.5
20260509000004 61 270 1.0 3.0 0.00 0.00 0.00 34 1004.6
20260508235434 61 248 2.0 6.0 0.00 0.00 0.00 33 1004.5
20260508234934 61 248 4.0 8.0 0.00 0.00 0.00 33 1004.6
20260508234404 61 248 3.0 7.0 0.00 0.00 0.00 34 1004.6
20260508233904 61 248 1.0 5.0 0.00 0.00 0.00 33 1004.7
20260508233333 61 248 4.0 9.0 0.00 0.00 0.00 33 1004.7
20260508232803 61 270 3.0 7.0 0.00 0.00 0.00 33 1004.7
20260508232233 61 270 1.0 4.0 0.00 0.00 0.00 33 1004.7
20260508231704 61 248 4.0 12.0 0.00 0.00 0.00 33 1004.6
20260508231203 62 270 4.0 10.0 0.00 0.00 0.00 32 1004.6
20260508230633 62 248 3.0 8.0 0.00 0.00 0.00 32 1004.6
20260508230133 62 248 4.0 8.0 0.00 0.00 0.00 33 1004.5
20260508225603 62 248 4.0 9.0 0.00 0.00 0.00 32 1004.6
20260508225103 62 225 4.0 8.0 0.00 0.00 0.00 32 1004.7
20260508224603 63 248 5.0 9.0 0.00 0.00 0.00 30 1004.7
20260508224103 64 248 4.0 8.0 0.00 0.00 0.00 30 1004.6
20260508223533 64 248 5.0 12.0 0.00 0.00 0.00 30 1004.6
20260508223032 64 248 5.0 9.0 0.00 0.00 0.00 30 1004.7
20260508222532 64 248 6.0 12.0 0.00 0.00 0.00 30 1004.7
20260508222002 64 248 6.0 10.0 0.00 0.00 0.00 31 1004.8
20260508221502 64 248 5.0 10.0 0.00 0.00 0.00 30 1004.8
20260508221002 64 248 6.0 14.0 0.00 0.00 0.00 30 1004.7
20260508220432 64 248 4.0 10.0 0.00 0.00 0.00 31 1005.0
20260508215932 63 248 4.0 10.0 0.00 0.00 0.00 31 1004.9
20260508215402 64 248 5.0 10.0 0.00 0.00 0.00 30 1005.0
20260508214902 64 248 5.0 10.0 0.00 0.00 0.00 31 1005.0
20260508214332 64 248 6.0 12.0 0.00 0.00 0.00 30 1005.0
20260508213801 64 248 6.0 12.0 0.00 0.00 0.00 30 1005.0
20260508213301 64 248 7.0 15.0 0.00 0.00 0.00 29 1005.0
20260508212731 64 248 4.0 10.0 0.00 0.00 0.00 29 1005.0
20260508212201 64 248 5.0 9.0 0.00 0.00 0.00 30 1005.0
20260508211701 64 248 5.0 13.0 0.00 0.00 0.00 30 1005.1
20260508211131 64 248 7.0 14.0 0.00 0.00 0.00 29 1005.1
20260508210631 64 270 5.0 12.0 0.00 0.00 0.00 29 1005.2
20260508210131 63 248 5.0 10.0 0.00 0.00 0.00 31 1005.2
20260508205601 63 248 6.0 11.0 0.00 0.00 0.00 30 1005.4
20260508205101 62 248 6.0 12.0 0.00 0.00 0.00 30 1005.5
20260508204601 63 248 3.0 7.0 0.00 0.00 0.00 31 1005.5
20260508204030 62 248 5.0 9.0 0.00 0.00 0.00 32 1005.8
20260508203500 61 248 5.0 11.0 0.00 0.00 0.00 30 1005.8
20260508203000 62 248 5.0 12.0 0.00 0.00 0.00 31 1005.8
20260508202430 62 248 8.0 15.0 0.00 0.00 0.00 29 1005.8
20260508201931 63 248 7.0 16.0 0.00 0.00 0.00 30 1005.9
20260508201400 63 248 7.0 16.0 0.00 0.00 0.00 29 1005.9
20260508200900 63 248 6.0 15.0 0.00 0.00 0.00 30 1006.1
20260508200330 63 248 7.0 13.0 0.00 0.00 0.00 29 1006.1
20260508195830 62 248 7.0 15.0 0.00 0.00 0.00 29 1006.1
20260508195305 63 248 7.0 13.0 0.00 0.00 0.00 29 1006.3
20260508194759 63 270 4.0 9.0 0.00 0.00 0.00 30 1006.4
20260508194229 62 248 6.0 14.0 0.00 0.00 0.00 30 1006.4
20260508193659 62 270 6.0 17.0 0.00 0.00 0.00 29 1006.5
20260508193159 62 248 6.0 13.0 0.00 0.00 0.00 30 1006.5
20260508192659 62 270 6.0 17.0 0.00 0.00 0.00 31 1006.6
20260508192129 62 270 6.0 13.0 0.00 0.00 0.00 30 1006.6
20260508191629 62 248 5.0 12.0 0.00 0.00 0.00 28 1006.8
20260508191129 62 248 5.0 12.0 0.00 0.00 0.00 30 1006.7
20260508190558 62 248 7.0 12.0 0.00 0.00 0.00 30 1006.8
20260508190059 62 248 6.0 14.0 0.00 0.00 0.00 29 1006.9
20260508185529 62 248 8.0 15.0 0.00 0.00 0.00 29 1006.9
20260508184958 61 225 7.0 13.0 0.00 0.00 0.00 30 1007.0
20260508184458 61 248 7.0 12.0 0.00 0.00 0.00 30 1007.0
20260508183958 61 248 7.0 14.0 0.00 0.00 0.00 30 1007.2
20260508183458 61 248 8.0 15.0 0.00 0.00 0.00 30 1007.3
20260508182928 61 248 6.0 15.0 0.00 0.00 0.00 32 1007.3
20260508182358 61 270 7.0 15.0 0.00 0.00 0.00 30 1007.3
20260508181858 60 248 8.0 14.0 0.00 0.00 0.00 32 1007.4
20260508181327 61 248 6.0 11.0 0.00 0.00 0.00 30 1007.4
20260508180757 61 248 6.0 13.0 0.00 0.00 0.00 30 1007.6
20260508180258 61 248 6.0 13.0 0.00 0.00 0.00 30 1007.4
20260508175727 60 248 8.0 13.0 0.00 0.00 0.00 31 1007.6
20260508175157 60 270 8.0 16.0 0.00 0.00 0.00 31 1007.7
20260508174657 60 248 7.0 13.0 0.00 0.00 0.00 30 1007.7
20260508174158 60 248 7.0 15.0 0.00 0.00 0.00 30 1007.8
20260508173627 60 248 7.0 13.0 0.00 0.00 0.00 30 1007.8
20260508173057 60 248 7.0 13.0 0.00 0.00 0.00 30 1008.0
20260508172556 60 248 7.0 14.0 0.00 0.00 0.00 31 1008.0
20260508172027 60 248 7.0 16.0 0.00 0.00 0.00 31 1008.0
20260508171456 60 248 7.0 14.0 0.00 0.00 0.00 32 1008.1
20260508170956 60 270 6.0 15.0 0.00 0.00 0.00 32 1008.1
20260508170457 60 248 7.0 15.0 0.00 0.00 0.00 31 1008.2
20260508165926 59 248 8.0 15.0 0.00 0.00 0.00 33 1008.2
20260508165426 59 248 8.0 14.0 0.00 0.00 0.00 32 1008.2
20260508164856 59 248 9.0 16.0 0.00 0.00 0.00 32 1008.4
20260508164356 59 248 7.0 12.0 0.00 0.00 0.00 34 1008.5
20260508163826 59 270 6.0 14.0 0.00 0.00 0.00 33 1008.5
20260508163326 59 248 6.0 12.0 0.00 0.00 0.00 33 1008.5
20260508162826 59 270 5.0 10.0 0.00 0.00 0.00 35 1008.5
20260508162255 59 248 6.0 13.0 0.00 0.00 0.00 33 1008.6
20260508161755 58 248 6.0 12.0 0.00 0.00 0.00 34 1008.5
20260508161225 58 248 6.0 13.0 0.00 0.00 0.00 35 1008.6
20260508160655 58 248 7.0 13.0 0.00 0.00 0.00 35 1008.7
20260508160155 58 248 7.0 14.0 0.00 0.00 0.00 35 1008.7
20260508155625 58 248 7.0 12.0 0.00 0.00 0.00 36 1008.8
20260508155055 58 248 6.0 12.0 0.00 0.00 0.00 35 1008.9
20260508154555 58 248 7.0 11.0 0.00 0.00 0.00 35 1008.9
20260508154025 58 248 7.0 13.0 0.00 0.00 0.00 35 1008.9
20260508153524 57 248 7.0 13.0 0.00 0.00 0.00 38 1008.9
20260508152954 56 248 7.0 14.0 0.00 0.00 0.00 38 1009.0
20260508152454 57 248 6.0 12.0 0.00 0.00 0.00 41 1009.0
20260508151954 56 248 6.0 11.0 0.00 0.00 0.00 40 1008.9
20260508151424 56 248 7.0 14.0 0.00 0.00 0.00 41 1009.1
20260508150854 56 248 5.0 10.0 0.00 0.00 0.00 42 1009.1
20260508150354 56 248 6.0 11.0 0.00 0.00 0.00 44 1009.0
20260508145824 56 248 5.0 13.0 0.00 0.00 0.00 43 1009.1
20260508145254 55 248 6.0 11.0 0.00 0.00 0.00 44 1009.2
20260508144754 55 248 5.0 12.0 0.00 0.00 0.00 46 1009.2
20260508144224 55 248 5.0 13.0 0.00 0.00 0.00 45 1009.3
20260508143654 54 248 4.0 8.0 0.00 0.00 0.00 47 1009.2
20260508143153 53 270 3.0 8.0 0.00 0.00 0.00 48 1009.3
20260508142653 53 248 4.0 12.0 0.00 0.00 0.00 47 1009.4
20260508142123 53 248 5.0 8.0 0.00 0.00 0.00 48 1009.4
20260508141553 53 248 5.0 12.0 0.00 0.00 0.00 47 1009.5
20260508141053 53 248 5.0 9.0 0.00 0.00 0.00 49 1009.5
20260508140553 53 248 4.0 9.0 0.00 0.00 0.00 49 1009.6
20260508140053 52 248 4.0 9.0 0.00 0.00 0.00 52 1009.5
20260508135523 52 248 4.0 10.0 0.00 0.00 0.00 53 1009.6
20260508134952 51 248 5.0 10.0 0.00 0.00 0.00 55 1009.7
20260508134453 50 270 4.0 9.0 0.00 0.00 0.00 56 1009.6
20260508133922 50 248 4.0 12.0 0.00 0.00 0.00 56 1009.7
20260508133422 50 270 5.0 11.0 0.00 0.00 0.00 58 1009.7
20260508132852 49 270 6.0 11.0 0.00 0.00 0.00 59 1009.8
20260508132352 48 248 5.0 12.0 0.00 0.00 0.00 61 1009.8
20260508131822 48 270 7.0 13.0 0.00 0.00 0.00 61 1009.8
20260508131322 48 270 6.0 12.0 0.00 0.00 0.00 62 1009.8
20260508130752 47 248 6.0 13.0 0.00 0.00 0.00 63 1009.8
20260508130252 47 248 4.0 8.0 0.00 0.00 0.00 64 1009.9
20260508125722 47 248 4.0 7.0 0.00 0.00 0.00 66 1009.9
20260508125222 46 270 3.0 8.0 0.00 0.00 0.00 66 1010.0
20260508124652 46 248 2.0 9.0 0.00 0.00 0.00 66 1009.9
20260508124151 46 248 1.0 5.0 0.00 0.00 0.00 67 1009.9